{"data":{"norad_id":62815,"intl_designator":"2025-018K","name":"STARLINK-32845","alt_names":[],"object_type":"PAYLOAD","status":"ACTIVE","operator":null,"country":"US","launch_date":"2025-01-24","launch_site_code":"AFWTR","launch_vehicle":null,"mission":null,"orbit_class":"UNKNOWN","rcs_meters":null,"size_class":null,"mass_kg":null,"dimensions":null,"purposes":["comms"],"wikipedia_slug":null,"has_3d_model":false,"image_url":null,"decayed_at":null,"tle_current":{"epoch":"2026-09-21T19:51:15.818688Z","epoch_age_seconds":53560,"freshness":"FRESH","line1":"1 62815U 25018K   26264.82726642  .00055128  00000+0  13642-2 0  9993","line2":"2 62815  53.1556 115.3065 0005894 132.5550 227.5953 15.39918650 93245","mean_motion":15.3991865,"eccentricity":0.0005894,"inclination_deg":53.1556,"raan_deg":115.3065,"arg_perigee_deg":132.555,"mean_anomaly_deg":227.5953,"bstar":0.0013642,"rev_number":9324,"period_min":93.511433217592,"perigee_km":442.3273018562,"apogee_km":450.37200672428,"semimajor_km":6824.4866542902,"source":"CELESTRAK","updated_at":"2026-09-22T09:00:49.668361Z"}}}